• In Russia
  • List of Countries
  • For 7 days
  • Water Temperature
  • Satellite Maps
  • Weather Map
  • Weather Widgets
  • user-avatar
    Login

    Hourly Weather Canberra

    Today, 24 February, Sunday

    Time Temperature Precipitation Wind Pressure Humidity
    00:00 +14°C° 0 mm 4 mps 716 mmHg 79%
    01:00 +14°C° 0 mm 4 mps 717 mmHg 78%
    02:00 +13°C° 0 mm 4 mps 716 mmHg 80%
    03:00 +12°C° 0 mm 4 mps 716 mmHg 83%
    04:00 +11°C° 0 mm 3 mps 716 mmHg 85%
    05:00 +11°C° 0 mm 4 mps 717 mmHg 81%
    06:00 +12°C° 0 mm 4 mps 717 mmHg 78%
    07:00 +12°C° 0 mm 4 mps 717 mmHg 74%
    08:00 +15°C° 0 mm 4 mps 718 mmHg 64%
    09:00 +18°C° 0 mm 4 mps 718 mmHg 54%
    10:00 +20°C° 0 mm 5 mps 719 mmHg 44%
    11:00 +22°C° 0 mm 5 mps 719 mmHg 40%
    12:00 +23°C° 0 mm 5 mps 719 mmHg 35%
    13:00 +26°C° 0 mm 5 mps 718 mmHg 31%
    14:00 +25°C° 0 mm 5 mps 718 mmHg 32%
    15:00 +25°C° 0 mm 5 mps 718 mmHg 33%
    16:00 +25°C° 0 mm 5 mps 718 mmHg 34%
    17:00 +22°C° 0 mm 4 mps 718 mmHg 43%
    18:00 +19°C° 0 mm 4 mps 718 mmHg 52%
    19:00 +17°C° 0 mm 4 mps 717 mmHg 61%
    20:00 +14°C° 0 mm 3 mps 718 mmHg 70%
    21:00 +13°C° 0 mm 3 mps 718 mmHg 80%
    22:00 +12°C° 0 mm 2 mps 718 mmHg 89%
    23:00 +12°C° 0 mm 2 mps 718 mmHg 90%

    Tomorrow, 25 February, Monday

    Time Temperature Precipitation Wind Pressure Humidity
    00:00 +10°C° 0 mm 2 mps 718 mmHg 92%
    01:00 +11°C° 0 mm 1 mps 718 mmHg 94%
    02:00 +11°C° 0 mm 1 mps 717 mmHg 94%
    03:00 +9°C° 0 mm 2 mps 717 mmHg 93%
    04:00 +9°C° 0 mm 2 mps 717 mmHg 93%
    05:00 +11°C° 0 mm 1 mps 717 mmHg 89%
    06:00 +12°C° 0 mm 1 mps 717 mmHg 85%
    07:00 +13°C° 0 mm 1 mps 718 mmHg 81%
    08:00 +16°C° 0 mm 2 mps 718 mmHg 67%
    09:00 +19°C° 0 mm 2 mps 718 mmHg 54%
    10:00 +23°C° 0 mm 2 mps 719 mmHg 41%
    11:00 +25°C° 0 mm 2 mps 718 mmHg 35%
    12:00 +27°C° 0 mm 2 mps 718 mmHg 30%
    13:00 +29°C° 0 mm 2 mps 717 mmHg 24%
    14:00 +30°C° 0 mm 2 mps 717 mmHg 24%
    15:00 +30°C° 0 mm 3 mps 716 mmHg 23%
    16:00 +30°C° 0 mm 3 mps 716 mmHg 23%
    17:00 +27°C° 0 mm 3 mps 715 mmHg 33%
    18:00 +25°C° 0 mm 3 mps 715 mmHg 42%
    19:00 +21°C° 0 mm 3 mps 715 mmHg 52%
    20:00 +19°C° 0 mm 2 mps 715 mmHg 63%
    21:00 +17°C° 0 mm 2 mps 715 mmHg 74%
    22:00 +15°C° 0 mm 1 mps 715 mmHg 85%
    23:00 +15°C° 0 mm 1 mps 715 mmHg 88%

    Day after tomorrow, 26 February, Tuesday

    Time Temperature Precipitation Wind Pressure Humidity
    00:00 +14°C° 0 mm 1 mps 715 mmHg 90%
    01:00 +14°C° 0 mm 1 mps 714 mmHg 92%
    02:00 +14°C° 0 mm 1 mps 714 mmHg 92%
    03:00 +13°C° 0 mm 0 mps 714 mmHg 92%
    04:00 +12°C° 0 mm 0 mps 713 mmHg 91%
    05:00 +13°C° 0 mm 0 mps 714 mmHg 85%
    06:00 +14°C° 0 mm 0 mps 714 mmHg 80%
    07:00 +15°C° 0 mm 0 mps 714 mmHg 74%
    08:00 +19°C° 0 mm 0 mps 715 mmHg 60%
    09:00 +25°C° 0 mm 1 mps 715 mmHg 46%
    10:00 +29°C° 0 mm 1 mps 716 mmHg 32%
    11:00 +31°C° 0 mm 1 mps 715 mmHg 27%
    12:00 +34°C° 0 mm 1 mps 715 mmHg 22%
    13:00 +36°C° 0 mm 1 mps 715 mmHg 17%
    14:00 +36°C° 0 mm 2 mps 714 mmHg 17%
    15:00 +35°C° 0 mm 2 mps 714 mmHg 17%
    16:00 +34°C° 0 mm 3 mps 713 mmHg 17%
    17:00 +31°C° 0 mm 3 mps 713 mmHg 21%
    18:00 +28°C° 0 mm 4 mps 713 mmHg 25%
    19:00 +26°C° 0 mm 4 mps 714 mmHg 29%
    20:00 +24°C° 0 mm 3 mps 714 mmHg 35%
    21:00 +21°C° 0 mm 3 mps 714 mmHg 42%
    22:00 +19°C° 0 mm 2 mps 715 mmHg 49%
    23:00 +19°C° 0 mm 2 mps 715 mmHg 49%

    27 February, Wednesday

    Time Temperature Precipitation Wind Pressure Humidity
    00:00 +18°C° 0 mm 2 mps 714 mmHg 50%
    01:00 +17°C° 0 mm 2 mps 714 mmHg 50%
    02:00 +17°C° 0 mm 2 mps 714 mmHg 51%
    03:00 +17°C° 0 mm 2 mps 714 mmHg 52%
    04:00 +16°C° 0 mm 2 mps 714 mmHg 52%
    05:00 +17°C° 0 mm 2 mps 715 mmHg 52%
    06:00 +17°C° 0 mm 2 mps 715 mmHg 51%
    07:00 +18°C° 0 mm 2 mps 716 mmHg 50%
    08:00 +21°C° 0 mm 2 mps 716 mmHg 43%
    09:00 +25°C° 0 mm 2 mps 717 mmHg 36%
    10:00 +28°C° 0 mm 3 mps 717 mmHg 29%
    11:00 +29°C° 0 mm 3 mps 717 mmHg 27%
    12:00 +31°C° 0 mm 3 mps 716 mmHg 25%
    13:00 +33°C° 0 mm 3 mps 716 mmHg 23%
    14:00 +33°C° 0 mm 3 mps 716 mmHg 24%
    15:00 +33°C° 0 mm 3 mps 715 mmHg 25%
    16:00 +33°C° 0 mm 3 mps 715 mmHg 26%
    17:00 +29°C° 0 mm 3 mps 715 mmHg 35%
    18:00 +27°C° 0 mm 3 mps 715 mmHg 44%
    19:00 +25°C° 0 mm 4 mps 715 mmHg 53%
    20:00 +22°C° 0 mm 3 mps 716 mmHg 64%
    21:00 +20°C° 0 mm 3 mps 716 mmHg 75%
    22:00 +19°C° 0 mm 2 mps 716 mmHg 85%
    23:00 +18°C° 0 mm 2 mps 716 mmHg 88%

    28 February, Thursday

    Time Temperature Precipitation Wind Pressure Humidity
    00:00 +18°C° 0 mm 1 mps 716 mmHg 91%
    01:00 +16°C° 0 mm 1 mps 715 mmHg 94%
    02:00 +16°C° 0 mm 1 mps 715 mmHg 93%
    03:00 +15°C° 0 mm 1 mps 715 mmHg 92%
    04:00 +15°C° 0 mm 1 mps 715 mmHg 92%
    05:00 +16°C° 0 mm 1 mps 715 mmHg 84%
    06:00 +18°C° 0 mm 1 mps 716 mmHg 77%
    07:00 +19°C° 0 mm 1 mps 716 mmHg 70%
    08:00 +22°C° 0 mm 1 mps 717 mmHg 55%
    09:00 +26°C° 0 mm 1 mps 717 mmHg 41%
    10:00 +29°C° 0 mm 1 mps 717 mmHg 27%
    11:00 +31°C° 0 mm 1 mps 717 mmHg 24%
    12:00 +33°C° 0 mm 1 mps 717 mmHg 21%
    13:00 +35°C° 0 mm 1 mps 716 mmHg 18%
    14:00 +34°C° 0 mm 1 mps 716 mmHg 19%
    15:00 +34°C° 0 mm 2 mps 715 mmHg 20%
    16:00 +32°C° 0 mm 2 mps 715 mmHg 21%
    17:00 +30°C° 0 mm 2 mps 715 mmHg 26%
    18:00 +29°C° 0 mm 2 mps 715 mmHg 31%
    19:00 +27°C° 0 mm 2 mps 715 mmHg 36%
    20:00 +25°C° 0 mm 2 mps 716 mmHg 46%
    21:00 +24°C° 0 mm 2 mps 716 mmHg 56%
    22:00 +21°C° 0 mm 2 mps 716 mmHg 66%
    23:00 +21°C° 0 mm 1 mps 716 mmHg 74%

    1 March, Friday

    Time Temperature Precipitation Wind Pressure Humidity
    00:00 +20°C° 0 mm 1 mps 716 mmHg 81%
    01:00 +18°C° 0 mm 1 mps 715 mmHg 89%
    02:00 +18°C° 0 mm 1 mps 715 mmHg 89%
    03:00 +16°C° 0 mm 1 mps 715 mmHg 90%
    04:00 +16°C° 0 mm 1 mps 715 mmHg 91%
    05:00 +18°C° 0 mm 1 mps 715 mmHg 84%
    06:00 +17°C° 0 mm 0 mps 716 mmHg 76%
    07:00 +18°C° 0 mm 0 mps 716 mmHg 69%
    08:00 +23°C° 0 mm 1 mps 717 mmHg 54%
    09:00 +27°C° 0 mm 1 mps 717 mmHg 38%
    10:00 +30°C° 0 mm 1 mps 718 mmHg 23%
    11:00 +31°C° 0 mm 2 mps 717 mmHg 21%
    12:00 +34°C° 0 mm 3 mps 717 mmHg 18%
    13:00 +35°C° 0 mm 3 mps 716 mmHg 16%
    14:00 +35°C° 0 mm 4 mps 716 mmHg 17%
    15:00 +34°C° 0 mm 4 mps 715 mmHg 17%
    16:00 +34°C° 0 mm 5 mps 715 mmHg 18%
    17:00 +30°C° 0 mm 4 mps 715 mmHg 28%
    18:00 +28°C° 0 mm 4 mps 715 mmHg 37%
    19:00 +25°C° 0 mm 4 mps 715 mmHg 47%
    20:00 +22°C° 0 mm 3 mps 715 mmHg 59%
    21:00 +20°C° 0 mm 2 mps 716 mmHg 72%
    22:00 +18°C° 0 mm 2 mps 716 mmHg 84%
    23:00 +17°C° 0 mm 2 mps 715 mmHg 87%
    Show more